| time (UTC) | temp F | wind direction | speed knots | gust knots | rain 1hr in | rain 24hr in | rain mn in | humidity % | barometer mb |
| 20260902170118 | 90 | 260 | 5.2 | 11.3 | 0.00 | 0.00 | 0.00 | 22 | 1024.3 |
| 20260902164621 | 90 | 236 | 5.2 | 10.4 | 0.00 | 0.00 | 0.00 | 22 | 1024.3 |
| 20260902163103 | 90 | 259 | 7.0 | 13.0 | 0.00 | 0.00 | 0.00 | 23 | 1024.3 |
| 20260902161600 | 90 | 203 | 5.2 | 11.3 | 0.00 | 0.00 | 0.00 | 22 | 1024.4 |
| 20260902160108 | 90 | 259 | 4.3 | 11.3 | 0.00 | 0.00 | 0.00 | 23 | 1024.5 |
| 20260902154615 | 90 | 257 | 6.1 | 10.4 | 0.00 | 0.00 | 0.00 | 21 | 1024.6 |
| 20260902153102 | 90 | 205 | 7.0 | 14.8 | 0.00 | 0.00 | 0.00 | 20 | 1024.6 |
| 20260902151607 | 90 | 260 | 3.5 | 13.9 | 0.00 | 0.00 | 0.00 | 21 | 1024.7 |
| 20260902150105 | 89 | 285 | 5.2 | 9.6 | 0.00 | 0.00 | 0.00 | 20 | 1024.7 |
| 20260902144604 | 89 | 269 | 7.0 | 14.8 | 0.00 | 0.00 | 0.00 | 20 | 1024.8 |
| 20260902143103 | 88 | 246 | 8.7 | 16.5 | 0.00 | 0.00 | 0.00 | 21 | 1024.8 |
| 20260902141615 | 89 | 283 | 5.2 | 13.9 | 0.00 | 0.00 | 0.00 | 20 | 1024.8 |
| 20260902140105 | 88 | 238 | 6.1 | 12.2 | 0.00 | 0.00 | 0.00 | 20 | 1024.9 |
| 20260902134608 | 88 | 248 | 7.8 | 13.9 | 0.00 | 0.00 | 0.00 | 20 | 1025.0 |
| 20260902133104 | 88 | 292 | 6.1 | 13.0 | 0.00 | 0.00 | 0.00 | 21 | 1025.0 |
| 20260902131608 | 88 | 277 | 6.1 | 11.3 | 0.00 | 0.00 | 0.00 | 25 | 1025.1 |
| 20260902124604 | 88 | 225 | 5.2 | 10.4 | 0.00 | 0.00 | 0.00 | 25 | 1025.2 |
| 20260902123109 | 86 | 247 | 3.5 | 11.3 | 0.00 | 0.00 | 0.00 | 26 | 1025.3 |
| 20260902121606 | 86 | 233 | 5.2 | 13.0 | 0.00 | 0.00 | 0.00 | 26 | 1025.4 |
| 20260902114606 | 85 | 277 | 6.1 | 12.2 | 0.00 | 0.00 | 0.00 | 27 | 1025.6 |
| 20260902113112 | 85 | 270 | 7.0 | 11.3 | 0.00 | 0.00 | 0.00 | 28 | 1025.8 |
| 20260902111604 | 85 | 245 | 4.3 | 8.7 | 0.00 | 0.00 | 0.00 | 30 | 1025.9 |
| 20260902110101 | 84 | 169 | 1.7 | 10.4 | 0.00 | 0.00 | 0.00 | 30 | 1025.9 |
| 20260902104602 | 84 | 280 | 3.5 | 10.4 | 0.00 | 0.00 | 0.00 | 29 | 1026.0 |
| 20260902103104 | 83 | 263 | 0.9 | 6.1 | 0.00 | 0.00 | 0.00 | 32 | 1026.0 |
| 20260902101623 | 81 | 264 | 3.5 | 7.0 | 0.00 | 0.00 | 0.00 | 35 | 1026.1 |
| 20260902100100 | 80 | 242 | 1.7 | 8.7 | 0.00 | 0.00 | 0.00 | 36 | 1026.2 |
| 20260902094600 | 79 | 221 | 3.5 | 7.8 | 0.00 | 0.00 | 0.00 | 39 | 1026.2 |
| 20260902093101 | 78 | 268 | 1.7 | 5.2 | 0.00 | 0.00 | 0.00 | 44 | 1026.1 |
| 20260902091605 | 78 | 189 | 2.6 | 5.2 | 0.00 | 0.00 | 0.00 | 43 | 1026.0 |
| 20260902090127 | 76 | 0 | 0.0 | 0.9 | 0.00 | 0.00 | 0.00 | 55 | 1025.8 |
| 20260902084604 | 74 | 44 | 0.0 | 0.9 | 0.00 | 0.00 | 0.00 | 62 | 1025.7 |
| 20260902083110 | 71 | 0 | 0.0 | 0.9 | 0.00 | 0.00 | 0.00 | 65 | 1025.5 |
| 20260902081608 | 68 | 0 | 0.9 | 2.6 | 0.00 | 0.00 | 0.00 | 68 | 1025.6 |
| 20260902080110 | 66 | 51 | 0.9 | 3.5 | 0.00 | 0.00 | 0.00 | 70 | 1025.5 |
| 20260902074601 | 63 | 47 | 1.7 | 3.5 | 0.00 | 0.00 | 0.00 | 71 | 1025.4 |
| 20260902073101 | 61 | 80 | 1.7 | 1.7 | 0.00 | 0.00 | 0.00 | 73 | 1025.5 |
| 20260902071605 | 60 | 56 | 0.9 | 2.6 | 0.00 | 0.00 | 0.00 | 73 | 1025.3 |
| 20260902070109 | 59 | 0 | 0.9 | 2.6 | 0.00 | 0.00 | 0.00 | 72 | 1025.2 |
| 20260902064607 | 58 | 0 | 0.0 | 0.0 | 0.00 | 0.00 | 0.00 | 72 | 1025.1 |
| 20260902063102 | 56 | 0 | 0.0 | 0.9 | 0.00 | 0.00 | 0.00 | 75 | 1025.0 |
| 20260902061623 | 56 | 98 | 0.0 | 0.0 | 0.00 | 0.00 | 0.00 | 74 | 1024.9 |
| 20260902060106 | 55 | 0 | 0.0 | 0.0 | 0.00 | 0.00 | 0.00 | 76 | 1024.9 |
| 20260902054605 | 55 | 0 | 0.0 | 0.9 | 0.00 | 0.00 | 0.00 | 77 | 1024.8 |
| 20260902053105 | 55 | 0 | 0.0 | 0.9 | 0.00 | 0.00 | 0.00 | 77 | 1024.8 |
| 20260902051603 | 55 | 79 | 0.0 | 1.7 | 0.00 | 0.00 | 0.00 | 76 | 1024.6 |
| 20260902050107 | 55 | 73 | 0.0 | 1.7 | 0.00 | 0.00 | 0.00 | 76 | 1024.5 |
| 20260902044610 | 55 | 0 | 0.0 | 0.0 | 0.00 | 0.00 | 0.00 | 74 | 1024.4 |
| 20260902043104 | 55 | 0 | 0.0 | 0.9 | 0.00 | 0.00 | 0.00 | 74 | 1024.2 |
| 20260902041608 | 55 | 0 | 0.0 | 0.9 | 0.00 | 0.00 | 0.00 | 73 | 1024.3 |
| 20260902040104 | 55 | 104 | 0.0 | 1.7 | 0.00 | 0.00 | 0.00 | 74 | 1024.2 |
| 20260902034602 | 56 | 0 | 0.0 | 0.9 | 0.00 | 0.00 | 0.00 | 72 | 1024.2 |
| 20260902033113 | 57 | 0 | 0.0 | 0.9 | 0.00 | 0.00 | 0.00 | 70 | 1024.4 |
| 20260902031602 | 57 | 0 | 0.0 | 0.9 | 0.00 | 0.00 | 0.00 | 69 | 1024.2 |
| 20260902030118 | 57 | 0 | 0.0 | 0.0 | 0.00 | 0.00 | 0.00 | 69 | 1024.1 |
| 20260902024559 | 58 | 0 | 0.0 | 2.6 | 0.00 | 0.00 | 0.00 | 70 | 1024.0 |
| 20260902023114 | 58 | 64 | 0.0 | 1.7 | 0.00 | 0.00 | 0.00 | 69 | 1024.0 |
| 20260902021619 | 58 | 0 | 0.0 | 0.9 | 0.00 | 0.00 | 0.00 | 65 | 1023.9 |
| 20260902020103 | 59 | 0 | 0.0 | 0.9 | 0.00 | 0.00 | 0.00 | 66 | 1024.0 |
| 20260902014600 | 59 | 96 | 0.9 | 2.6 | 0.00 | 0.00 | 0.00 | 66 | 1024.1 |
| 20260902013100 | 60 | 0 | 0.0 | 0.0 | 0.00 | 0.00 | 0.00 | 61 | 1024.0 |
| 20260902011605 | 60 | 0 | 0.0 | 0.0 | 0.00 | 0.00 | 0.00 | 60 | 1023.9 |
| 20260902004609 | 60 | 0 | 0.0 | 0.9 | 0.00 | 0.00 | 0.00 | 60 | 1024.2 |
| 20260902003104 | 61 | 9 | 0.0 | 1.7 | 0.00 | 0.00 | 0.00 | 56 | 1024.2 |
| 20260902001605 | 62 | 0 | 0.0 | 0.0 | 0.00 | 0.00 | 0.00 | 56 | 1024.1 |
| 20260902000106 | 63 | 0 | 0.0 | 0.9 | 0.00 | 0.00 | 0.00 | 54 | 1024.2 |
| 20260901234616 | 63 | 0 | 0.0 | 0.9 | 0.00 | 0.00 | 0.00 | 51 | 1024.1 |
| 20260901233105 | 63 | 0 | 0.0 | 2.6 | 0.00 | 0.00 | 0.00 | 51 | 1024.2 |
| 20260901231603 | 63 | 120 | 0.0 | 0.9 | 0.00 | 0.00 | 0.00 | 50 | 1024.3 |
| 20260901230139 | 64 | 359 | 0.0 | 0.9 | 0.00 | 0.00 | 0.00 | 48 | 1024.2 |
| 20260901224605 | 65 | 0 | 0.0 | 0.0 | 0.00 | 0.00 | 0.00 | 47 | 1024.0 |
| 20260901223119 | 66 | 0 | 0.0 | 0.9 | 0.00 | 0.00 | 0.00 | 46 | 1023.7 |
| 20260901221600 | 66 | 0 | 0.0 | 0.9 | 0.00 | 0.00 | 0.00 | 45 | 1023.6 |
| 20260901220108 | 66 | 0 | 0.0 | 0.9 | 0.00 | 0.00 | 0.00 | 44 | 1023.6 |
| 20260901214606 | 66 | 119 | 0.9 | 2.6 | 0.00 | 0.00 | 0.00 | 44 | 1023.7 |
| 20260901213107 | 67 | 57 | 0.0 | 4.3 | 0.00 | 0.00 | 0.00 | 43 | 1023.6 |
| 20260901211603 | 68 | 65 | 2.6 | 3.5 | 0.00 | 0.00 | 0.00 | 42 | 1023.4 |
| 20260901210105 | 70 | 0 | 0.0 | 1.7 | 0.00 | 0.00 | 0.00 | 41 | 1023.4 |
| 20260901204606 | 71 | 0 | 0.0 | 5.2 | 0.00 | 0.00 | 0.00 | 39 | 1023.3 |
| 20260901203110 | 71 | 106 | 1.7 | 4.3 | 0.00 | 0.00 | 0.00 | 39 | 1023.0 |
| 20260901201612 | 73 | 0 | 0.0 | 0.0 | 0.00 | 0.00 | 0.00 | 39 | 1022.7 |
| 20260901200108 | 75 | 0 | 0.0 | 0.0 | 0.00 | 0.00 | 0.00 | 34 | 1022.6 |
| 20260901194608 | 76 | 147 | 0.0 | 0.9 | 0.00 | 0.00 | 0.00 | 33 | 1022.3 |
| 20260901193106 | 78 | 214 | 0.0 | 3.5 | 0.00 | 0.00 | 0.00 | 31 | 1022.0 |
| 20260901191605 | 79 | 243 | 0.9 | 2.6 | 0.00 | 0.00 | 0.00 | 31 | 1021.8 |
| 20260901190110 | 80 | 184 | 0.0 | 3.5 | 0.00 | 0.00 | 0.00 | 30 | 1021.6 |
| 20260901184601 | 81 | 235 | 0.9 | 4.3 | 0.00 | 0.00 | 0.00 | 29 | 1021.5 |
| 20260901183110 | 83 | 265 | 0.9 | 4.3 | 0.00 | 0.00 | 0.00 | 27 | 1021.3 |
| 20260901181605 | 83 | 248 | 2.6 | 6.1 | 0.00 | 0.00 | 0.00 | 26 | 1021.4 |
| 20260901180107 | 83 | 240 | 2.6 | 9.6 | 0.00 | 0.00 | 0.00 | 26 | 1021.4 |
| 20260901174604 | 83 | 347 | 5.2 | 10.4 | 0.00 | 0.00 | 0.00 | 25 | 1021.5 |
| 20260901173112 | 84 | 298 | 7.0 | 11.3 | 0.00 | 0.00 | 0.00 | 25 | 1021.4 |
| 20260901171620 | 84 | 275 | 5.2 | 13.0 | 0.00 | 0.00 | 0.00 | 25 | 1021.3 |